Notices

What's New in latest Release from April 7th, 2021:

- Updated Glossary, including Speed of Maximum Gust, and Total Hourly Precipitation

- Updated national and regional climate services offices contacts and prices information

- Addition of station inventory lists for 1981-2010, 1971-2000, and 1961-1990 Normals.

If you haven't already, please take our survey and provide feedback about our website: https://eccc.sondage-survey.ca/f/LanguageSelection.aspx?s=442ca660-fcf1-47c0-95a9-59707d6fd709

Hourly Data Report for October 24, 2003

TORONTO CITY
ONTARIO

43°40'00.000" N
79°24'00.000" W
112.50 m
6158355
71508
XTO

Download Data

Hourly Data (October 2003)
Hourly Data Report for October 24, 2003
TIME
LST
Temp Definition
°C
Dew Point Definition
°C
Rel Hum Definition
%
Precip. Amount Definition
mm

Wind Dir Definition
10's deg

Wind Spd Definition
km/h
Visibility Definition
km
Stn Press Definition
kPa
Hmdx Definition


Wind Chill Definition


Weather Definition


00:00 4.3 -2.2 63   LegendMM LegendMM LegendMM 99.98     LegendNANA
01:00 4.0 -1.4 68   LegendMM LegendMM LegendMM 99.99     LegendNANA
02:00 3.6 -1.7 68   LegendMM LegendMM LegendMM 100.06     LegendNANA
03:00 3.1 -1.8 70   LegendMM LegendMM LegendMM 100.09     LegendNANA
04:00 2.2 -0.8 81   LegendMM LegendMM LegendMM 100.17     LegendNANA
05:00 1.3 -0.7 87   LegendMM LegendMM LegendMM 100.27     LegendNANA
06:00 2.2 -0.6 82   LegendMM LegendMM LegendMM 100.38     LegendNANA
07:00 1.3 -1.4 82   LegendMM LegendMM LegendMM 100.48     LegendNANA
08:00 3.1 -0.9 75   LegendMM LegendMM LegendMM 100.60     LegendNANA
09:00 4.9 -2.1 60   LegendMM LegendMM LegendMM 100.68     LegendNANA
10:00 6.1 -2.4 54   LegendMM LegendMM LegendMM 100.71     LegendNANA
11:00 7.5 -2.2 50   LegendMM LegendMM LegendMM 100.76     LegendNANA
12:00 8.4 -1.8 49   LegendMM LegendMM LegendMM 100.76     LegendNANA
13:00 8.9 0.1 54   LegendMM LegendMM LegendMM 100.75     LegendNANA
14:00 6.9 -1.7 54   LegendMM LegendMM LegendMM 100.77     LegendNANA
15:00 6.8 -1.1 57   LegendMM LegendMM LegendMM 100.79     LegendNANA
16:00 6.9 0.2 62   LegendMM LegendMM LegendMM 100.77     LegendNANA
17:00 6.8 0.5 64   LegendMM LegendMM LegendMM 100.80     LegendNANA
18:00 6.2 0.6 67   LegendMM LegendMM LegendMM 100.84     LegendNANA
19:00 6.5 2.0 73   LegendMM LegendMM LegendMM 100.89     LegendNANA
20:00 7.0 2.8 75   LegendMM LegendMM LegendMM 100.84     LegendNANA
21:00 6.9 3.5 79   LegendMM LegendMM LegendMM 100.94     LegendNANA
22:00 7.5 4.3 80   LegendMM LegendMM LegendMM 100.90     LegendNANA
23:00 7.8 4.8 81   LegendMM LegendMM LegendMM 100.92     LegendNANA

Notes on Data Quality.

Legend

  • E = Estimated
  • M = Missing
  • NA = Not Available*
  • [empty] = Indicates an unobserved value
Date modified: